, AZ

(GMT )
Fort Huachuca

Weather History for KALK - April, 2013

Change the Weather History Date:

Saturday, April 27, 2013

  Actual Average Record
Temperature  
Mean Temperature 64 °F -  
Max Temperature 81 °F - - ()
Min Temperature 48 °F - - ()
Growing Degree Days 14 (Base 50)    
Moisture  
Dew Point 15 °F    
Average Humidity 15    
Maximum Humidity 33    
Minimum Humidity 7    
Precipitation  
Precipitation 0.00 in - - ()
Sea Level Pressure  
Sea Level Pressure 29.94 in    
Wind  
Wind Speed 8 mph (West)    
Max Wind Speed 17 mph    
Max Gust Speed 23 mph    
Visibility 10 miles    
Events      
Averages and records for this station are not official NWS values.
T = Trace of Precipitation, MM = Missing Value Source: NWS Daily Summary

Daily Weather History Graph

Daily Weather History Graph

Search for Another Location

Airport or City:

Trip Planner

Search our weather history database for the weather conditions in past years. The results will help you decide how hot, cold, wet, or windy it might be!

Date:

Astronomy

Apr. 27, 2013 Rise Set
Actual Time 5:39 AM MST 6:59 PM MST
Civil Twilight 5:14 AM MST 7:24 PM MST
Nautical Twilight 4:43 AM MST 7:55 PM MST
Astronomical Twilight 4:12 AM MST 8:27 PM MST
Moon 9:25 PM MST (4/27) 7:07 AM MST (4/27)
Length of Visible Light 14h 10m
Length of Day
13h 19m
Waning Gibbous, 95% of the Moon is Illuminated
Apr 27
Waning Gibbous
May 2
Last Quarter
May 9
New
May 17
First Quarter
May 24
Full

Hourly Weather History & Observations

Time (MST) Temp. Dew Point Humidity Pressure Visibility Wind Dir Wind Speed Gust Speed Precip Events Conditions
12:56 AM 57.9 °F 19.9 °F 23% 29.99 in 10.0 mi SSW 9.2 mph - N/A   Clear
1:56 AM 54.0 °F 19.9 °F 26% 29.98 in 10.0 mi SW 6.9 mph - N/A   Clear
2:56 AM 55.9 °F 19.9 °F 25% 29.96 in 10.0 mi SSW 6.9 mph - N/A   Clear
3:56 AM 57.9 °F 19.9 °F 23% 29.96 in 10.0 mi SSW 5.8 mph - N/A   Clear
4:56 AM 48.0 °F 19.9 °F 33% 29.98 in 10.0 mi SW 6.9 mph - N/A   Clear
5:56 AM 54.0 °F 21.0 °F 28% 29.97 in 10.0 mi WSW 6.9 mph - N/A   Clear
6:56 AM 60.1 °F 21.9 °F 23% 29.99 in 10.0 mi West 4.6 mph - N/A   Clear
7:56 AM 64.9 °F 21.0 °F 19% 30.22 in 10.0 mi NW 3.5 mph - N/A   Clear
8:56 AM 70.0 °F 21.0 °F 16% 29.98 in 10.0 mi East 6.9 mph - N/A   Clear
9:56 AM 73.0 °F 19.9 °F 14% 29.97 in 10.0 mi Variable 3.5 mph - N/A   Clear
10:56 AM 75.9 °F 14.0 °F 10% 29.96 in 10.0 mi East 9.2 mph - N/A   Clear
11:56 AM 77.0 °F 10.9 °F 8% 29.93 in 10.0 mi NW 10.4 mph - N/A   Clear
12:56 PM 78.1 °F 12.0 °F 8% 29.90 in 10.0 mi Variable 5.8 mph - N/A   Clear
1:56 PM 79.0 °F 10.0 °F 7% 29.88 in 10.0 mi Variable 5.8 mph - N/A   Clear
2:56 PM 81.0 °F 10.9 °F 7% 29.83 in 10.0 mi WNW 17.3 mph 23.0 mph N/A   Clear
3:56 PM 81.0 °F 10.9 °F 7% 29.81 in 10.0 mi WNW 11.5 mph 20.7 mph N/A   Clear
4:31 PM 80.6 °F 10.4 °F 7% 30.07 in 10.0 mi North 11.5 mph 17.3 mph N/A   Clear
4:56 PM 79.0 °F 10.0 °F 7% 29.84 in 10.0 mi NNW 5.8 mph 17.3 mph N/A   Clear
5:37 PM 78.8 °F 10.4 °F 7% 30.07 in 10.0 mi NW 13.8 mph - N/A   Clear
5:56 PM 78.1 °F 10.0 °F 7% 29.83 in 10.0 mi NW 11.5 mph - N/A   Clear
6:56 PM 71.1 °F 10.9 °F 10% 29.84 in 10.0 mi NW 8.1 mph - N/A   Clear
7:56 PM 64.9 °F 12.0 °F 13% 29.86 in 10.0 mi WSW 8.1 mph - N/A   Clear
8:56 PM 64.0 °F 12.0 °F 13% 29.87 in 10.0 mi WSW 8.1 mph - N/A   Unknown
10:56 PM 63.0 °F 16.0 °F 16% 29.86 in 10.0 mi WSW 10.4 mph - N/A   Clear
11:56 PM 62.1 °F 16.0 °F 17% 29.86 in 10.0 mi SSW 8.1 mph - N/A   Clear